Simultaneous Nadir Overpasses (SNOs) Predictions

Prediction of SNOs between TERRA and METOP-C Satellite Orbit:

Table of predicted SNOs for the next 14.0 days since TLE Epoch: 10/5/2019
Index Date (TERRA) Time (TERRA) Lat,Lon (TERRA) SZA (TERRA ) Date (METOP-C) Time (METOP-C) Lat,Lon (METOP-C) SZA (METOP-C ) Distance(km) Time Diff (sec)
1 10/05/2019 05:20:11 -81.30, -33.05 91.04 10/05/2019 05:18:58 -81.30, -33.20 91.09 2.56 73
2 10/05/2019 06:09:37 81.31, 134.75 89.00 10/05/2019 06:09:36 81.31, 134.87 89.02 2.02 1
3 10/05/2019 06:59:03 -81.33, -57.36 90.95 10/05/2019 07:00:17 -81.32, -57.53 90.94 2.99 74
4 10/08/2019 00:54:25 -81.30, 33.38 89.94 10/08/2019 00:53:18 -81.31, 33.56 89.95 3.16 67
5 10/08/2019 01:43:51 81.31,-158.86 90.09 10/08/2019 01:43:57 81.31,-158.79 90.11 1.27 6
6 10/10/2019 20:28:40 -81.30, 99.76 88.87 10/10/2019 20:27:40 -81.31, 99.93 88.87 3.01 60
7 10/10/2019 21:18:06 81.30, -92.51 91.17 10/10/2019 21:18:19 81.31, -92.44 91.19 1.47 13
8 10/13/2019 16:02:54 -81.31, 166.47 87.75 10/13/2019 16:02:02 -81.31, 166.29 87.81 3.16 52
9 10/13/2019 16:52:20 81.32, -25.83 92.27 10/13/2019 16:52:40 81.32, -25.70 92.30 2.18 20
10 10/16/2019 11:37:09 -81.31,-127.24 86.72 10/16/2019 11:36:24 -81.31,-127.36 86.76 1.91 45




NCC Satellite Simultaneous Nadir Overpasses (SNOs) Prediction Service
